Regional Weather Roundup
Issued by NWS Albany, NY

Home | Current Version | Previous Version | Text Only | Print | Product List | Glossary On
Versions: 1 2 3 4 5 6 7 8 9 10 11 12 13 14 15 16 17 18 19 20 21 22 23 24 25 26 27 28 29 30 31 32 33 34 35 36 37 38 39 40 41 42 43 44 45 46 47 48 49 50
000
ASUS41 KALY 172010
RWRALY

NEW YORK STATE HOURLY WEATHER ROUNDUP
NATIONAL WEATHER SERVICE ALBANY NY
400 PM EDT FRI APR 17 2015

NOTE: "FAIR" INDICATES FEW OR NO CLOUDS BELOW 12,000 FEET WITH NO
SIGNIFICANT WEATHER AND/OR NO OBSTRUCTIONS TO VISIBILITY.

NYZ032-033-038>043-046>054-057>066-NYZ062>081-172100-
EAST


CITY           SKY/WX    TMP DP  RH WIND       PRES   REMARKS
ALBANY         PTSUNNY   64  50  60 W14G24    29.92F
GLENS FALLS    CLOUDY    65  43  44 W10       29.89F
POUGHKEEPSIE   CLOUDY    68  53  58 W3        29.90F
NEWBURGH       CLOUDY    68  55  64 W16       29.93F
MONTGOMERY     CLOUDY    71  28  20 NW8       29.90F
WHITE PLAINS   PTSUNNY   67  53  61 SW8       29.92F
ISLIP          PTSUNNY   62  53  72 SW10      29.93F
NEW YORK CITY  PTSUNNY   69  53  56 W13       29.93F
CENTRAL PARK   MOSUNNY   69  53  56 VRB3      29.96F
$$

NYZ005>009-017-018-044>046-055-056-172100-
CENTRAL


CITY           SKY/WX    TMP DP  RH WIND       PRES   REMARKS
FULTON         MOSUNNY   58  49  72 W12       29.97F
SYRACUSE       CLOUDY    59  50  72 SW9       29.97F
ROME           CLOUDY    56  48  74 NW10      29.97F
ELMIRA         CLOUDY    67  50  54 NW10      29.95F
BINGHAMTON     PTSUNNY   60  52  74 NW9       29.96S
MONTICELLO     CLOUDY    59  52  77 NW7       29.97S
$$

NYZ026>034-041>043-172100-
NORTH


CITY           SKY/WX    TMP DP  RH WIND       PRES   REMARKS
WATERTOWN      SUNNY     57  47  69 SW13G21   29.94F
FORT DRUM      NOT AVBL
MASSENA        SUNNY     65  44  46 SW20G25   29.86F
SARANAC LAKE   MOSUNNY   59  38  45 W9G17     29.87S
PLATTSBURGH    PTSUNNY   69  34  27 NW17G25   29.82S
$$

NYZ001>004-010>016-019>021-172100-
WEST


CITY           SKY/WX    TMP DP  RH WIND       PRES   REMARKS
NIAGARA FALLS  MOSUNNY   60  50  69 S12       29.98F
BUFFALO        MOSUNNY   56  49  77 SW15      30.00F
DUNKIRK        SUNNY     60  50  69 W16       30.02F
JAMESTOWN      MOSUNNY   61  46  59 W9G17     30.03F
WELLSVILLE     PTSUNNY   62  48  60 W10       30.01S
ROCHESTER      MOSUNNY   65  48  54 NW8       29.97F
PENN YAN       PTSUNNY   62  50  64 NW9       29.98F
$$

             KEY
       WCI = WIND CHILL INDEX
       VSB = VISIBILITY
       HX  = HEAT INDEX
$$



USA.gov is the U.S. government's official web portal to all federal, state and local government web resources and services.